| time (UTC) | temp F | wind direction | speed MPH | gust MPH | rain 1hr in | rain 24hr in | rain mn in | humidity % | barometer mb |
| 20260906104928 | 72 | 0 | 0.0 | 0.0 | 0.00 | 0.21 | 0.00 | 84 | 1011.6 |
| 20260906104421 | 72 | 0 | 0.0 | 0.0 | 0.00 | 0.21 | 0.00 | 84 | 1011.7 |
| 20260906103916 | 72 | 0 | 0.0 | 0.0 | 0.00 | 0.21 | 0.00 | 84 | 1011.6 |
| 20260906103642 | 72 | 0 | 0.0 | 0.0 | 0.00 | 0.21 | 0.00 | 84 | 1011.5 |
| 20260906102904 | 72 | 0 | 0.0 | 0.0 | 0.00 | 0.21 | 0.00 | 84 | 1011.4 |
| 20260906102358 | 72 | 0 | 0.0 | 0.0 | 0.00 | 0.21 | 0.00 | 84 | 1011.3 |
| 20260906101852 | 72 | 0 | 0.0 | 0.0 | 0.00 | 0.21 | 0.00 | 84 | 1011.2 |
| 20260906101346 | 72 | 0 | 0.0 | 0.0 | 0.00 | 0.21 | 0.00 | 84 | 1011.2 |
| 20260906101124 | 72 | 0 | 0.0 | 0.0 | 0.00 | 0.21 | 0.00 | 84 | 1011.2 |
| 20260906100347 | 72 | 0 | 0.0 | 0.0 | 0.00 | 0.21 | 0.00 | 85 | 1011.1 |
| 20260906095828 | 72 | 0 | 0.0 | 0.0 | 0.00 | 0.21 | 0.00 | 85 | 1011.1 |
| 20260906095554 | 72 | 0 | 0.0 | 1.0 | 0.00 | 0.21 | 0.00 | 85 | 1011.1 |
| 20260906094816 | 72 | 0 | 0.0 | 1.0 | 0.00 | 0.21 | 0.00 | 85 | 1011.0 |
| 20260906094541 | 72 | 29 | 1.0 | 2.0 | 0.00 | 0.21 | 0.00 | 85 | 1011.0 |
| 20260906093804 | 72 | 15 | 1.0 | 2.0 | 0.00 | 0.21 | 0.00 | 85 | 1010.9 |
| 20260906093258 | 72 | 10 | 0.0 | 1.0 | 0.00 | 0.21 | 0.00 | 85 | 1011.0 |
| 20260906092752 | 72 | 345 | 0.0 | 0.0 | 0.00 | 0.21 | 0.00 | 86 | 1010.9 |
| 20260906092246 | 72 | 345 | 0.0 | 0.0 | 0.00 | 0.21 | 0.00 | 86 | 1010.9 |
| 20260906091739 | 72 | 345 | 0.0 | 0.0 | 0.00 | 0.21 | 0.00 | 86 | 1010.9 |
| 20260906091234 | 72 | 345 | 0.0 | 0.0 | 0.00 | 0.21 | 0.00 | 86 | 1010.9 |
| 20260906090728 | 72 | 325 | 0.0 | 0.0 | 0.00 | 0.21 | 0.00 | 86 | 1010.8 |
| 20260906090221 | 72 | 325 | 0.0 | 0.0 | 0.00 | 0.21 | 0.00 | 86 | 1010.8 |
| 20260906085716 | 72 | 325 | 0.0 | 0.0 | 0.00 | 0.21 | 0.00 | 86 | 1010.7 |
| 20260906085210 | 72 | 5 | 0.0 | 0.0 | 0.00 | 0.21 | 0.00 | 86 | 1010.6 |
| 20260906084935 | 72 | 5 | 0.0 | 0.0 | 0.00 | 0.21 | 0.00 | 86 | 1010.5 |
| 20260906084158 | 72 | 341 | 0.0 | 0.0 | 0.00 | 0.21 | 0.00 | 86 | 1010.4 |
| 20260906083652 | 72 | 324 | 0.0 | 0.0 | 0.00 | 0.21 | 0.00 | 86 | 1010.4 |
| 20260906083146 | 72 | 340 | 0.0 | 0.0 | 0.00 | 0.21 | 0.00 | 86 | 1010.3 |
| 20260906082639 | 72 | 340 | 0.0 | 0.0 | 0.00 | 0.21 | 0.00 | 86 | 1010.2 |
| 20260906082134 | 72 | 340 | 0.0 | 0.0 | 0.00 | 0.21 | 0.00 | 86 | 1010.3 |
| 20260906081628 | 72 | 250 | 0.0 | 0.0 | 0.00 | 0.21 | 0.00 | 85 | 1010.3 |
| 20260906081122 | 72 | 250 | 0.0 | 0.0 | 0.00 | 0.21 | 0.00 | 85 | 1010.3 |
| 20260906080616 | 72 | 250 | 0.0 | 0.0 | 0.00 | 0.21 | 0.00 | 85 | 1010.4 |
| 20260906080110 | 72 | 250 | 0.0 | 0.0 | 0.00 | 0.21 | 0.00 | 85 | 1010.4 |
| 20260906075604 | 72 | 250 | 0.0 | 0.0 | 0.00 | 0.21 | 0.00 | 85 | 1010.3 |
| 20260906075058 | 72 | 250 | 0.0 | 0.0 | 0.00 | 0.21 | 0.00 | 84 | 1010.4 |
| 20260906074551 | 72 | 250 | 0.0 | 0.0 | 0.00 | 0.21 | 0.00 | 85 | 1010.3 |
| 20260906074317 | 72 | 250 | 0.0 | 0.0 | 0.00 | 0.21 | 0.00 | 85 | 1010.3 |
| 20260906073811 | 72 | 250 | 0.0 | 0.0 | 0.00 | 0.21 | 0.00 | 85 | 1010.2 |
| 20260906073034 | 73 | 250 | 0.0 | 0.0 | 0.00 | 0.21 | 0.00 | 84 | 1010.2 |
| 20260906072527 | 73 | 250 | 0.0 | 0.0 | 0.00 | 0.21 | 0.00 | 84 | 1010.2 |
| 20260906072022 | 73 | 250 | 0.0 | 0.0 | 0.00 | 0.21 | 0.00 | 84 | 1010.1 |
| 20260906071516 | 73 | 250 | 0.0 | 0.0 | 0.00 | 0.21 | 0.00 | 84 | 1010.2 |
| 20260906071010 | 73 | 250 | 0.0 | 0.0 | 0.00 | 0.21 | 0.00 | 84 | 1010.1 |
| 20260906070504 | 73 | 250 | 0.0 | 0.0 | 0.00 | 0.21 | 0.00 | 84 | 1010.0 |
| 20260906065958 | 73 | 250 | 0.0 | 0.0 | 0.00 | 0.21 | 0.00 | 84 | 1010.1 |
| 20260906065722 | 73 | 250 | 0.0 | 0.0 | 0.00 | 0.21 | 0.00 | 84 | 1010.1 |
| 20260906064946 | 74 | 250 | 0.0 | 0.0 | 0.00 | 0.21 | 0.00 | 84 | 1010.2 |
| 20260906064439 | 74 | 250 | 0.0 | 0.0 | 0.00 | 0.21 | 0.00 | 84 | 1010.2 |
| 20260906064205 | 74 | 250 | 0.0 | 0.0 | 0.00 | 0.21 | 0.00 | 84 | 1010.2 |
| 20260906063428 | 74 | 250 | 0.0 | 0.0 | 0.00 | 0.21 | 0.00 | 84 | 1010.3 |
| 20260906062922 | 74 | 250 | 0.0 | 0.0 | 0.00 | 0.21 | 0.00 | 85 | 1010.3 |
| 20260906062416 | 74 | 250 | 0.0 | 0.0 | 0.00 | 0.21 | 0.00 | 85 | 1010.3 |
| 20260906061910 | 74 | 250 | 0.0 | 0.0 | 0.00 | 0.21 | 0.00 | 85 | 1010.3 |
| 20260906061404 | 74 | 250 | 0.0 | 0.0 | 0.00 | 0.21 | 0.00 | 85 | 1010.3 |
| 20260906061129 | 74 | 250 | 0.0 | 0.0 | 0.00 | 0.21 | 0.00 | 85 | 1010.3 |
| 20260906060352 | 74 | 250 | 0.0 | 0.0 | 0.00 | 0.21 | 0.00 | 85 | 1010.3 |
| 20260906060117 | 74 | 250 | 0.0 | 0.0 | 0.00 | 0.21 | 0.00 | 85 | 1010.4 |
| 20260906055340 | 74 | 317 | 0.0 | 0.0 | 0.00 | 0.21 | 0.00 | 85 | 1010.3 |
| 20260906054834 | 75 | 42 | 0.0 | 0.0 | 0.00 | 0.21 | 0.00 | 85 | 1010.4 |
| 20260906054328 | 75 | 63 | 0.0 | 1.0 | 0.00 | 0.21 | 0.00 | 85 | 1010.5 |
| 20260906054053 | 75 | 355 | 0.0 | 3.0 | 0.00 | 0.21 | 0.00 | 86 | 1010.5 |
| 20260906053320 | 75 | 355 | 0.0 | 3.0 | 0.00 | 0.21 | 0.00 | 86 | 1010.7 |
| 20260906052819 | 75 | 34 | 0.0 | 1.0 | 0.00 | 0.21 | 0.00 | 86 | 1010.7 |
| 20260906052318 | 75 | 19 | 0.0 | 2.0 | 0.00 | 0.21 | 0.00 | 86 | 1010.8 |
| 20260906051817 | 75 | 34 | 0.0 | 2.0 | 0.00 | 0.21 | 0.00 | 86 | 1010.7 |
| 20260906051316 | 75 | 355 | 0.0 | 1.0 | 0.00 | 0.21 | 0.00 | 87 | 1010.7 |
| 20260906050829 | 75 | 89 | 0.0 | 1.0 | 0.00 | 0.21 | 0.00 | 87 | 1010.8 |
| 20260906050544 | 75 | 92 | 0.0 | 1.0 | 0.00 | 0.21 | 0.00 | 87 | 1010.8 |
| 20260906045813 | 75 | 12 | 0.0 | 1.0 | 0.00 | 0.21 | 0.00 | 87 | 1010.8 |
| 20260906045544 | 75 | 12 | 0.0 | 0.0 | 0.00 | 0.21 | 0.00 | 87 | 1010.8 |
| 20260906044811 | 75 | 12 | 0.0 | 0.0 | 0.00 | 0.21 | 0.00 | 87 | 1010.8 |
| 20260906044312 | 75 | 12 | 0.0 | 0.0 | 0.00 | 0.21 | 0.00 | 87 | 1010.8 |
| 20260906043812 | 75 | 12 | 0.0 | 0.0 | 0.00 | 0.21 | 0.00 | 87 | 1010.8 |
| 20260906043309 | 75 | 12 | 0.0 | 1.0 | 0.00 | 0.21 | 0.00 | 87 | 1010.8 |
| 20260906042809 | 75 | 12 | 0.0 | 1.0 | 0.00 | 0.21 | 0.00 | 87 | 1010.8 |
| 20260906042310 | 75 | 12 | 0.0 | 1.0 | 0.00 | 0.21 | 0.00 | 87 | 1010.9 |
| 20260906041807 | 75 | 9 | 0.0 | 1.0 | 0.00 | 0.21 | 0.00 | 87 | 1010.9 |
| 20260906041306 | 75 | 275 | 0.0 | 0.0 | 0.00 | 0.21 | 0.00 | 87 | 1010.8 |
| 20260906040805 | 75 | 286 | 0.0 | 1.0 | 0.00 | 0.21 | 0.00 | 87 | 1010.8 |
| 20260906040301 | 75 | 338 | 0.0 | 1.0 | 0.00 | 0.21 | 0.00 | 87 | 1010.8 |
| 20260906035802 | 75 | 338 | 0.0 | 1.0 | 0.00 | 0.21 | 0.21 | 87 | 1010.9 |
| 20260906035256 | 75 | 348 | 0.0 | 1.0 | 0.00 | 0.21 | 0.21 | 87 | 1011.0 |
| 20260906034753 | 75 | 334 | 0.0 | 1.0 | 0.00 | 0.21 | 0.21 | 87 | 1011.1 |
| 20260906034253 | 75 | 334 | 0.0 | 1.0 | 0.00 | 0.21 | 0.21 | 87 | 1010.9 |
| 20260906033752 | 75 | 289 | 0.0 | 2.0 | 0.00 | 0.21 | 0.21 | 87 | 1010.8 |
| 20260906033249 | 74 | 27 | 0.0 | 4.0 | 0.00 | 0.21 | 0.21 | 87 | 1010.8 |
| 20260906032749 | 74 | 5 | 0.0 | 4.0 | 0.00 | 0.21 | 0.21 | 86 | 1010.9 |
| 20260906032250 | 74 | 308 | 0.0 | 0.0 | 0.00 | 0.21 | 0.21 | 86 | 1010.9 |
| 20260906031246 | 74 | 336 | 0.0 | 0.0 | 0.00 | 0.21 | 0.21 | 86 | 1010.9 |
| 20260906030744 | 74 | 336 | 0.0 | 0.0 | 0.00 | 0.21 | 0.21 | 86 | 1010.8 |
| 20260906030243 | 74 | 336 | 0.0 | 0.0 | 0.00 | 0.21 | 0.21 | 86 | 1010.8 |
| 20260906030015 | 74 | 336 | 0.0 | 0.0 | 0.00 | 0.21 | 0.21 | 86 | 1010.9 |
| 20260906025242 | 74 | 336 | 0.0 | 0.0 | 0.00 | 0.21 | 0.21 | 86 | 1010.9 |
| 20260906024739 | 74 | 336 | 0.0 | 0.0 | 0.00 | 0.21 | 0.21 | 86 | 1011.0 |
| 20260906024238 | 74 | 336 | 0.0 | 0.0 | 0.00 | 0.21 | 0.21 | 86 | 1011.0 |
| 20260906023737 | 74 | 336 | 0.0 | 0.0 | 0.00 | 0.21 | 0.21 | 86 | 1011.0 |
| 20260906023238 | 74 | 336 | 0.0 | 0.0 | 0.00 | 0.21 | 0.21 | 86 | 1011.1 |
| 20260906022736 | 74 | 336 | 0.0 | 0.0 | 0.00 | 0.21 | 0.21 | 86 | 1011.1 |
| 20260906022234 | 74 | 336 | 0.0 | 0.0 | 0.00 | 0.21 | 0.21 | 85 | 1011.0 |
| 20260906021734 | 74 | 336 | 0.0 | 0.0 | 0.00 | 0.21 | 0.21 | 85 | 1011.0 |
| 20260906021234 | 74 | 336 | 0.0 | 0.0 | 0.00 | 0.21 | 0.21 | 85 | 1011.0 |
| 20260906020958 | 74 | 338 | 0.0 | 0.0 | 0.00 | 0.21 | 0.21 | 85 | 1011.0 |
| 20260906020222 | 74 | 321 | 0.0 | 0.0 | 0.00 | 0.21 | 0.21 | 85 | 1011.0 |
| 20260906015819 | 74 | 321 | 0.0 | 0.0 | 0.00 | 0.22 | 0.21 | 84 | 1010.9 |
| 20260906014934 | 74 | 321 | 0.0 | 0.0 | 0.00 | 0.22 | 0.21 | 84 | 1011.1 |
| 20260906014429 | 74 | 321 | 0.0 | 0.0 | 0.00 | 0.22 | 0.21 | 84 | 1011.1 |
| 20260906013652 | 74 | 321 | 0.0 | 0.0 | 0.00 | 0.22 | 0.21 | 84 | 1011.0 |
| 20260906013146 | 74 | 321 | 0.0 | 0.0 | 0.00 | 0.22 | 0.21 | 84 | 1010.9 |
| 20260906012640 | 74 | 321 | 0.0 | 0.0 | 0.00 | 0.22 | 0.21 | 84 | 1010.8 |
| 20260906012134 | 74 | 321 | 0.0 | 0.0 | 0.00 | 0.23 | 0.21 | 84 | 1010.8 |
| 20260906011627 | 74 | 321 | 0.0 | 0.0 | 0.00 | 0.23 | 0.21 | 84 | 1010.8 |
| 20260906011122 | 75 | 321 | 0.0 | 0.0 | 0.00 | 0.23 | 0.21 | 84 | 1010.7 |
| 20260906010847 | 75 | 321 | 0.0 | 0.0 | 0.00 | 0.23 | 0.21 | 84 | 1010.6 |
| 20260906010110 | 75 | 321 | 0.0 | 0.0 | 0.00 | 0.23 | 0.21 | 84 | 1010.7 |
| 20260906005604 | 75 | 321 | 0.0 | 0.0 | 0.00 | 0.23 | 0.21 | 84 | 1010.7 |
| 20260906005057 | 75 | 321 | 0.0 | 0.0 | 0.00 | 0.23 | 0.21 | 84 | 1010.6 |
| 20260906004552 | 75 | 321 | 0.0 | 0.0 | 0.00 | 0.24 | 0.21 | 84 | 1010.5 |
| 20260906004046 | 75 | 321 | 0.0 | 0.0 | 0.00 | 0.24 | 0.21 | 83 | 1010.4 |
| 20260906003812 | 75 | 321 | 0.0 | 0.0 | 0.00 | 0.24 | 0.21 | 83 | 1010.3 |
| 20260906003034 | 75 | 321 | 0.0 | 0.0 | 0.00 | 0.24 | 0.21 | 83 | 1010.2 |
| 20260906002528 | 75 | 321 | 0.0 | 0.0 | 0.00 | 0.24 | 0.21 | 83 | 1010.1 |
| 20260906002022 | 76 | 321 | 0.0 | 0.0 | 0.00 | 0.24 | 0.21 | 83 | 1009.8 |
| 20260906001529 | 76 | 321 | 0.0 | 0.0 | 0.00 | 0.24 | 0.21 | 83 | 1009.8 |
| 20260906001010 | 76 | 321 | 0.0 | 0.0 | 0.00 | 0.24 | 0.21 | 83 | 1009.8 |
| 20260906000503 | 76 | 321 | 0.0 | 0.0 | 0.00 | 0.24 | 0.21 | 83 | 1009.7 |
| 20260905235958 | 76 | 321 | 0.0 | 0.0 | 0.00 | 0.24 | 0.21 | 82 | 1009.6 |
| 20260905235452 | 76 | 321 | 0.0 | 0.0 | 0.00 | 0.24 | 0.21 | 82 | 1009.6 |
| 20260905234946 | 76 | 321 | 0.0 | 0.0 | 0.00 | 0.24 | 0.21 | 82 | 1009.6 |
| 20260905234439 | 76 | 321 | 0.0 | 0.0 | 0.00 | 0.24 | 0.21 | 82 | 1009.6 |
| 20260905233934 | 76 | 321 | 0.0 | 0.0 | 0.00 | 0.24 | 0.21 | 82 | 1009.6 |
| 20260905233428 | 77 | 321 | 0.0 | 0.0 | 0.00 | 0.24 | 0.21 | 82 | 1009.7 |
| 20260905232922 | 77 | 321 | 0.0 | 0.0 | 0.00 | 0.24 | 0.21 | 82 | 1009.8 |
| 20260905232416 | 77 | 321 | 0.0 | 0.0 | 0.00 | 0.24 | 0.21 | 82 | 1010.0 |
| 20260905231910 | 77 | 318 | 0.0 | 0.0 | 0.00 | 0.24 | 0.21 | 82 | 1010.0 |
| 20260905231404 | 77 | 336 | 0.0 | 0.0 | 0.00 | 0.24 | 0.21 | 82 | 1010.0 |
| 20260905230857 | 77 | 338 | 0.0 | 0.0 | 0.00 | 0.24 | 0.21 | 82 | 1010.0 |
| 20260905230351 | 77 | 338 | 0.0 | 3.0 | 0.00 | 0.24 | 0.21 | 82 | 1010.0 |
| 20260905225845 | 78 | 338 | 1.0 | 3.0 | 0.00 | 0.24 | 0.21 | 82 | 1009.8 |
| 20260905225340 | 78 | 5 | 0.0 | 2.0 | 0.00 | 0.24 | 0.21 | 83 | 1009.8 |
| 20260905224834 | 78 | 348 | 1.0 | 3.0 | 0.00 | 0.24 | 0.21 | 83 | 1009.7 |
| 20260905224328 | 78 | 343 | 1.0 | 3.0 | 0.00 | 0.24 | 0.21 | 83 | 1009.7 |
| 20260905223822 | 78 | 341 | 2.0 | 5.0 | 0.00 | 0.24 | 0.21 | 83 | 1009.7 |
| 20260905223316 | 78 | 329 | 2.0 | 5.0 | 0.00 | 0.24 | 0.21 | 84 | 1009.6 |
| 20260905222809 | 78 | 344 | 1.0 | 4.0 | 0.00 | 0.24 | 0.21 | 84 | 1009.5 |
| 20260905222306 | 78 | 338 | 1.0 | 3.0 | 0.00 | 0.24 | 0.21 | 84 | 1009.6 |
| 20260905221758 | 78 | 5 | 1.0 | 3.0 | 0.00 | 0.24 | 0.21 | 84 | 1009.6 |
| 20260905221252 | 78 | 323 | 1.0 | 2.0 | 0.00 | 0.24 | 0.21 | 85 | 1009.7 |
| 20260905220746 | 78 | 327 | 1.0 | 4.0 | 0.00 | 0.24 | 0.21 | 84 | 1009.7 |
| 20260905220240 | 78 | 346 | 1.0 | 4.0 | 0.00 | 0.24 | 0.21 | 84 | 1009.7 |
| 20260905215734 | 78 | 338 | 1.0 | 3.0 | 0.00 | 0.24 | 0.21 | 85 | 1009.7 |
| 20260905215228 | 78 | 57 | 1.0 | 4.0 | 0.00 | 0.24 | 0.21 | 85 | 1009.8 |
| 20260905214722 | 78 | 333 | 2.0 | 4.0 | 0.00 | 0.24 | 0.21 | 85 | 1009.8 |
| 20260905214216 | 79 | 355 | 2.0 | 4.0 | 0.00 | 0.24 | 0.21 | 85 | 1009.7 |
| 20260905213940 | 78 | 317 | 2.0 | 3.0 | 0.00 | 0.24 | 0.21 | 85 | 1009.6 |
| 20260905213204 | 78 | 341 | 2.0 | 5.0 | 0.00 | 0.24 | 0.21 | 85 | 1009.6 |
| 20260905212657 | 78 | 333 | 1.0 | 5.0 | 0.00 | 0.24 | 0.21 | 85 | 1009.5 |
| 20260905212152 | 78 | 339 | 1.0 | 4.0 | 0.00 | 0.24 | 0.21 | 85 | 1009.6 |
| 20260905211917 | 78 | 355 | 1.0 | 4.0 | 0.00 | 0.24 | 0.21 | 84 | 1009.5 |
| 20260905211140 | 78 | 325 | 1.0 | 3.0 | 0.00 | 0.24 | 0.21 | 85 | 1009.5 |
| 20260905210634 | 79 | 323 | 1.0 | 3.0 | 0.00 | 0.24 | 0.21 | 84 | 1009.6 |
| 20260905210128 | 79 | 0 | 1.0 | 4.0 | 0.00 | 0.24 | 0.21 | 84 | 1009.7 |
| 20260905205622 | 79 | 345 | 0.0 | 4.0 | 0.00 | 0.24 | 0.21 | 85 | 1009.6 |
| 20260905205116 | 79 | 350 | 1.0 | 3.0 | 0.00 | 0.24 | 0.21 | 85 | 1009.5 |
| 20260905204609 | 79 | 350 | 1.0 | 3.0 | 0.00 | 0.24 | 0.21 | 84 | 1009.4 |
| 20260905204104 | 79 | 103 | 0.0 | 3.0 | 0.00 | 0.24 | 0.21 | 85 | 1009.2 |
| 20260905203558 | 79 | 25 | 1.0 | 3.0 | 0.00 | 0.24 | 0.21 | 86 | 1009.2 |
| 20260905203052 | 78 | 45 | 1.0 | 3.0 | 0.00 | 0.24 | 0.21 | 85 | 1009.4 |
| 20260905202546 | 78 | 5 | 0.0 | 0.0 | 0.00 | 0.24 | 0.21 | 85 | 1009.4 |
| 20260905202040 | 78 | 30 | 0.0 | 0.0 | 0.01 | 0.24 | 0.21 | 86 | 1009.6 |
| 20260905201534 | 78 | 30 | 0.0 | 0.0 | 0.02 | 0.24 | 0.21 | 86 | 1009.4 |
| 20260905201027 | 78 | 30 | 0.0 | 0.0 | 0.02 | 0.24 | 0.21 | 86 | 1009.5 |
| 20260905200535 | 78 | 169 | 0.0 | 2.0 | 0.02 | 0.24 | 0.21 | 86 | 1009.4 |
| 20260905200029 | 78 | 161 | 1.0 | 4.0 | 0.02 | 0.24 | 0.21 | 86 | 1009.4 |
| 20260905195509 | 78 | 334 | 2.0 | 4.0 | 0.02 | 0.24 | 0.21 | 86 | 1009.6 |
| 20260905195004 | 78 | 300 | 1.0 | 4.0 | 0.02 | 0.24 | 0.21 | 87 | 1009.7 |
| 20260905194458 | 78 | 304 | 0.0 | 3.0 | 0.03 | 0.24 | 0.21 | 88 | 1009.8 |
| 20260905193952 | 77 | 320 | 0.0 | 2.0 | 0.11 | 0.24 | 0.21 | 87 | 1009.8 |
| 20260905193446 | 77 | 175 | 0.0 | 2.0 | 0.19 | 0.24 | 0.21 | 88 | 1010.0 |
| 20260905192940 | 76 | 153 | 0.0 | 2.0 | 0.21 | 0.24 | 0.21 | 89 | 1010.2 |
| 20260905192434 | 76 | 311 | 0.0 | 2.0 | 0.21 | 0.24 | 0.21 | 88 | 1010.2 |
| 20260905192159 | 76 | 311 | 0.0 | 2.0 | 0.20 | 0.23 | 0.20 | 88 | 1010.4 |
| 20260905191653 | 76 | 49 | 0.0 | 2.0 | 0.19 | 0.22 | 0.19 | 88 | 1010.5 |
| 20260905190916 | 75 | 198 | 0.0 | 0.0 | 0.19 | 0.22 | 0.19 | 88 | 1010.5 |
| 20260905190641 | 75 | 192 | 0.0 | 0.0 | 0.19 | 0.22 | 0.19 | 88 | 1010.5 |
| 20260905185904 | 76 | 73 | 0.0 | 3.0 | 0.19 | 0.22 | 0.19 | 88 | 1010.4 |
| 20260905185357 | 75 | 51 | 0.0 | 3.0 | 0.19 | 0.22 | 0.19 | 88 | 1010.3 |
| 20260905184852 | 75 | 39 | 1.0 | 4.0 | 0.19 | 0.22 | 0.19 | 86 | 1010.3 |
| 20260905184345 | 75 | 42 | 4.0 | 12.0 | 0.15 | 0.18 | 0.16 | 83 | 1010.6 |
| 20260905183840 | 78 | 302 | 6.0 | 14.0 | 0.09 | 0.12 | 0.09 | 80 | 1010.9 |
| 20260905183334 | 80 | 325 | 6.0 | 14.0 | 0.01 | 0.04 | 0.02 | 79 | 1011.4 |
| 20260905183058 | 81 | 296 | 4.0 | 9.0 | 0.00 | 0.03 | 0.00 | 78 | 1011.1 |
| 20260905182322 | 83 | 316 | 3.0 | 8.0 | 0.00 | 0.03 | 0.00 | 73 | 1010.8 |
| 20260905181816 | 83 | 21 | 2.0 | 6.0 | 0.00 | 0.03 | 0.00 | 71 | 1010.7 |
| 20260905181310 | 84 | 274 | 2.0 | 4.0 | 0.00 | 0.03 | 0.00 | 70 | 1010.5 |
| 20260905180804 | 84 | 5 | 2.0 | 5.0 | 0.00 | 0.03 | 0.00 | 69 | 1010.5 |
| 20260905180258 | 85 | 24 | 2.0 | 5.0 | 0.00 | 0.03 | 0.00 | 67 | 1010.5 |
| 20260905175752 | 85 | 336 | 2.0 | 5.0 | 0.00 | 0.03 | 0.00 | 68 | 1010.5 |
| 20260905175246 | 85 | 9 | 2.0 | 5.0 | 0.00 | 0.03 | 0.00 | 68 | 1010.4 |
| 20260905174753 | 84 | 303 | 3.0 | 10.0 | 0.00 | 0.03 | 0.00 | 68 | 1010.5 |
| 20260905174233 | 84 | 333 | 2.0 | 10.0 | 0.00 | 0.03 | 0.00 | 67 | 1010.5 |
| 20260905173731 | 85 | 355 | 2.0 | 9.0 | 0.00 | 0.03 | 0.00 | 69 | 1010.7 |
| 20260905173724 | 85 | 299 | 3.0 | 9.0 | 0.00 | 0.03 | 0.00 | 67 | 1010.8 |
| 20260905172715 | 85 | 350 | 4.0 | 8.0 | 0.00 | 0.03 | 0.00 | 64 | 1010.8 |
| 20260905172441 | 86 | 345 | 4.0 | 10.0 | 0.00 | 0.03 | 0.00 | 66 | 1010.7 |
| 20260905171704 | 87 | 325 | 4.0 | 10.0 | 0.00 | 0.03 | 0.00 | 63 | 1010.7 |
| 20260905171157 | 87 | 339 | 4.0 | 8.0 | 0.00 | 0.03 | 0.00 | 66 | 1010.7 |
| 20260905170652 | 86 | 325 | 3.0 | 10.0 | 0.00 | 0.03 | 0.00 | 67 | 1010.8 |
| 20260905170146 | 85 | 347 | 4.0 | 10.0 | 0.00 | 0.03 | 0.00 | 64 | 1010.8 |
| 20260905165640 | 86 | 303 | 3.0 | 8.0 | 0.00 | 0.03 | 0.00 | 65 | 1011.0 |
| 20260905165133 | 87 | 340 | 3.0 | 8.0 | 0.00 | 0.03 | 0.00 | 65 | 1011.0 |
| 20260905164628 | 87 | 46 | 4.0 | 12.0 | 0.00 | 0.03 | 0.00 | 63 | 1010.9 |
| 20260905164122 | 87 | 9 | 5.0 | 12.0 | 0.00 | 0.03 | 0.00 | 61 | 1010.9 |
| 20260905163616 | 87 | 30 | 5.0 | 12.0 | 0.00 | 0.03 | 0.00 | 62 | 1010.9 |
| 20260905163110 | 87 | 0 | 5.0 | 12.0 | 0.00 | 0.03 | 0.00 | 64 | 1010.9 |
| 20260905162835 | 87 | 9 | 4.0 | 10.0 | 0.00 | 0.03 | 0.00 | 62 | 1010.9 |
| 20260905162329 | 87 | 74 | 4.0 | 9.0 | 0.00 | 0.03 | 0.00 | 64 | 1010.9 |
| 20260905161551 | 87 | 82 | 4.0 | 9.0 | 0.00 | 0.03 | 0.00 | 62 | 1011.0 |
| 20260905161319 | 87 | 84 | 4.0 | 12.0 | 0.00 | 0.03 | 0.00 | 63 | 1011.0 |
| 20260905160540 | 86 | 306 | 4.0 | 12.0 | 0.00 | 0.03 | 0.00 | 65 | 1011.0 |
| 20260905160305 | 86 | 348 | 3.0 | 9.0 | 0.00 | 0.03 | 0.00 | 65 | 1011.1 |
| 20260905155528 | 86 | 24 | 2.0 | 9.0 | 0.00 | 0.03 | 0.00 | 65 | 1011.2 |
| 20260905155022 | 87 | 0 | 2.0 | 7.0 | 0.00 | 0.03 | 0.00 | 70 | 1011.3 |
| 20260905154516 | 86 | 182 | 3.0 | 10.0 | 0.00 | 0.03 | 0.00 | 69 | 1011.2 |
| 20260905154010 | 85 | 32 | 3.0 | 8.0 | 0.00 | 0.03 | 0.00 | 67 | 1011.4 |
| 20260905153504 | 86 | 337 | 3.0 | 6.0 | 0.00 | 0.03 | 0.00 | 68 | 1011.4 |
| 20260905152958 | 85 | 350 | 3.0 | 11.0 | 0.00 | 0.03 | 0.00 | 73 | 1011.4 |
| 20260905152451 | 85 | 315 | 3.0 | 11.0 | 0.00 | 0.03 | 0.00 | 71 | 1011.5 |
| 20260905151946 | 85 | 338 | 3.0 | 10.0 | 0.00 | 0.03 | 0.00 | 71 | 1011.5 |
| 20260905151440 | 85 | 323 | 3.0 | 10.0 | 0.00 | 0.03 | 0.00 | 70 | 1011.4 |
| 20260905150934 | 85 | 37 | 3.0 | 7.0 | 0.00 | 0.03 | 0.00 | 72 | 1011.3 |
| 20260905150428 | 86 | 76 | 3.0 | 8.0 | 0.00 | 0.03 | 0.00 | 75 | 1011.4 |
| 20260905145922 | 85 | 311 | 2.0 | 8.0 | 0.00 | 0.03 | 0.00 | 73 | 1011.3 |
| 20260905145415 | 85 | 344 | 2.0 | 8.0 | 0.00 | 0.03 | 0.00 | 73 | 1011.2 |
| 20260905144910 | 85 | 49 | 3.0 | 8.0 | 0.00 | 0.03 | 0.00 | 72 | 1011.3 |
| 20260905144404 | 85 | 22 | 3.0 | 8.0 | 0.00 | 0.03 | 0.00 | 71 | 1011.2 |
| 20260905143858 | 85 | 63 | 3.0 | 8.0 | 0.00 | 0.03 | 0.00 | 73 | 1011.2 |
| 20260905143352 | 85 | 63 | 3.0 | 7.0 | 0.00 | 0.03 | 0.00 | 73 | 1011.1 |
| 20260905142846 | 84 | 294 | 3.0 | 8.0 | 0.00 | 0.03 | 0.00 | 72 | 1011.1 |
| 20260905142352 | 84 | 348 | 4.0 | 9.0 | 0.00 | 0.03 | 0.00 | 72 | 1011.1 |
| 20260905142105 | 84 | 32 | 4.0 | 9.0 | 0.00 | 0.03 | 0.00 | 74 | 1010.9 |
| 20260905141328 | 84 | 335 | 3.0 | 9.0 | 0.00 | 0.03 | 0.00 | 72 | 1010.8 |
| 20260905140822 | 84 | 34 | 3.0 | 9.0 | 0.00 | 0.03 | 0.00 | 72 | 1010.8 |
| 20260905140329 | 83 | 36 | 2.0 | 8.0 | 0.00 | 0.03 | 0.00 | 74 | 1010.6 |
| 20260905135810 | 83 | 346 | 3.0 | 9.0 | 0.00 | 0.03 | 0.00 | 74 | 1010.6 |
| 20260905135306 | 83 | 9 | 4.0 | 10.0 | 0.00 | 0.03 | 0.00 | 73 | 1010.5 |
| 20260905134757 | 83 | 36 | 3.0 | 10.0 | 0.00 | 0.03 | 0.00 | 73 | 1010.5 |
| 20260905134252 | 83 | 328 | 2.0 | 8.0 | 0.00 | 0.03 | 0.00 | 75 | 1010.5 |
| 20260905133746 | 82 | 32 | 2.0 | 7.0 | 0.00 | 0.03 | 0.00 | 76 | 1010.4 |
| 20260905133239 | 81 | 31 | 4.0 | 10.0 | 0.00 | 0.03 | 0.00 | 76 | 1010.5 |
| 20260905132734 | 81 | 341 | 4.0 | 10.0 | 0.00 | 0.03 | 0.00 | 77 | 1010.5 |
| 20260905132227 | 80 | 323 | 3.0 | 7.0 | 0.00 | 0.03 | 0.00 | 77 | 1010.4 |
| 20260905131735 | 80 | 28 | 3.0 | 8.0 | 0.00 | 0.03 | 0.00 | 78 | 1010.5 |
| 20260905131215 | 80 | 267 | 4.0 | 8.0 | 0.00 | 0.03 | 0.00 | 78 | 1010.5 |
| 20260905130941 | 79 | 9 | 3.0 | 8.0 | 0.00 | 0.03 | 0.00 | 79 | 1010.6 |
| 20260905130204 | 79 | 355 | 3.0 | 8.0 | 0.00 | 0.03 | 0.00 | 80 | 1010.6 |
| 20260905125929 | 78 | 31 | 3.0 | 8.0 | 0.00 | 0.03 | 0.00 | 80 | 1010.5 |
| 20260905125152 | 78 | 329 | 2.0 | 6.0 | 0.00 | 0.03 | 0.00 | 81 | 1010.5 |
| 20260905124646 | 78 | 333 | 2.0 | 6.0 | 0.00 | 0.03 | 0.00 | 82 | 1010.5 |
| 20260905124139 | 78 | 319 | 3.0 | 6.0 | 0.00 | 0.03 | 0.00 | 82 | 1010.6 |
| 20260905123634 | 77 | 275 | 3.0 | 8.0 | 0.00 | 0.03 | 0.00 | 83 | 1010.6 |
| 20260905123134 | 76 | 0 | 2.0 | 9.0 | 0.00 | 0.03 | 0.00 | 85 | 1010.6 |
| 20260905123128 | 77 | 338 | 3.0 | 8.0 | 0.00 | 0.03 | 0.00 | 84 | 1010.5 |
| 20260905122116 | 76 | 9 | 2.0 | 9.0 | 0.00 | 0.03 | 0.00 | 86 | 1010.6 |
| 20260905121712 | 76 | 38 | 2.0 | 6.0 | 0.00 | 0.03 | 0.00 | 87 | 1010.6 |
| 20260905120558 | 75 | 346 | 1.0 | 6.0 | 0.00 | 0.03 | 0.00 | 87 | 1010.6 |
| 20260905120105 | 75 | 331 | 1.0 | 6.0 | 0.00 | 0.03 | 0.00 | 88 | 1010.7 |
| 20260905115546 | 75 | 0 | 1.0 | 3.0 | 0.00 | 0.03 | 0.00 | 88 | 1010.7 |
| 20260905115311 | 75 | 323 | 1.0 | 5.0 | 0.00 | 0.03 | 0.00 | 88 | 1010.7 |
| 20260905114534 | 74 | 44 | 1.0 | 5.0 | 0.00 | 0.03 | 0.00 | 88 | 1010.6 |
| 20260905114028 | 74 | 17 | 0.0 | 0.0 | 0.00 | 0.03 | 0.00 | 87 | 1010.6 |
| 20260905113522 | 74 | 338 | 0.0 | 2.0 | 0.00 | 0.03 | 0.00 | 87 | 1010.6 |
| 20260905113023 | 73 | 67 | 0.0 | 0.0 | 0.00 | 0.03 | 0.00 | 86 | 1010.4 |
| 20260905113016 | 74 | 307 | 0.0 | 2.0 | 0.00 | 0.03 | 0.00 | 87 | 1010.5 |
| 20260905112235 | 73 | 44 | 0.0 | 0.0 | 0.00 | 0.03 | 0.00 | 86 | 1010.3 |
| 20260905111458 | 73 | 355 | 0.0 | 0.0 | 0.00 | 0.03 | 0.00 | 86 | 1010.3 |
| 20260905110951 | 73 | 355 | 0.0 | 0.0 | 0.00 | 0.03 | 0.00 | 86 | 1010.3 |
| 20260905110446 | 73 | 355 | 0.0 | 0.0 | 0.00 | 0.03 | 0.00 | 86 | 1010.3 |
| 20260905105940 | 74 | 355 | 0.0 | 0.0 | 0.00 | 0.03 | 0.00 | 86 | 1010.3 |
| 20260905105705 | 74 | 355 | 0.0 | 0.0 | 0.00 | 0.03 | 0.00 | 86 | 1010.2 |